QPF
0.00 0.00 0.00 0.00 0.00 0.01 0.01 0.01 0.02 0.02 0.01 0.01 0.01 0.00 0.00 0.00 0.01 0.01 0.01 0.01 0.01 0.01 0.02 0.03 0.03 0.02 0.02 0.02 0.02 0.01 0.02 0.03 0.03 0.05 0.04 0.04 0.05 0.07 0.06 0.07 0.09 0.04 0.04
0.00 0.00 0.00 0.00 0.00 0.00 0.01 0.02 0.02 0.01 0.01 0.01 0.02 0.01 0.01 0.01 0.01 0.01 0.01 0.01 0.01 0.01 0.03 0.03 0.02 0.02 0.02 0.02 0.02 0.02 0.02 0.03 0.05 0.06 0.06 0.05 0.05 0.08 0.09 0.10 0.12 0.03 0.05
0.00 0.00 0.00 0.00 0.00 0.00 0.01 0.01 0.01 0.01 0.01 0.01 0.01 0.01 0.01 0.01 0.01 0.02 0.01 0.01 0.02 0.02 0.03 0.02 0.01 0.02 0.02 0.03 0.02 0.03 0.03 0.04 0.09 0.13 0.16 0.10 0.04 0.08 0.09 0.10 0.07 0.03 0.04
0.00 0.00 0.00 0.00 0.00 0.00 0.00 0.01 0.01 0.01 0.01 0.01 0.01 0.01 0.01 0.01 0.01 0.02 0.01 0.01 0.02 0.03 0.02 0.01 0.01 0.01 0.02 0.03 0.03 0.04 0.05 0.07 0.14 0.28 0.25 0.11 0.06 0.04 0.05 0.05 0.04 0.03 0.04
0.00 0.00 0.00 0.00 0.00 0.01 0.01 0.01 0.01 0.01 0.01 0.01 0.01 0.01 0.01 0.01 0.02 0.01 0.01 0.01 0.02 0.02 0.01 0.01 0.01 0.01 0.01 0.01 0.03 0.04 0.05 0.07 0.14 0.25 0.16 0.12 0.07 0.04 0.04 0.04 0.03 0.03 0.03
0.00 0.00 0.00 0.00 0.00 0.00 0.01 0.01 0.01 0.01 0.01 0.01 0.01 0.01 0.01 0.01 0.01 0.01 0.01 0.01 0.02 0.01 0.01 0.01 0.01 0.01 0.01 0.01 0.01 0.02 0.04 0.06 0.13 0.11 0.09 0.09 0.04 0.02 0.03 0.04 0.04 0.03 0.03
0.00 0.00 0.00 0.00 0.00 0.00 0.00 0.01 0.01 0.01 0.01 0.01 0.01 0.01 0.01 0.01 0.01 0.01 0.02 0.02 0.02 0.01 0.01 0.01 0.01 0.01 0.01 0.01 0.01 0.01 0.03 0.07 0.13 0.06 0.07 0.08 0.03 0.02 0.03 0.04 0.04 0.03 0.02
0.00 0.00 0.00 0.00 0.00 0.00 0.01 0.01 0.01 0.01 0.01 0.01 0.01 0.01 0.01 0.01 0.01 0.02 0.02 0.01 0.01 0.01 0.01 0.01 0.01 0.02 0.01 0.01 0.01 0.01 0.01 0.05 0.07 0.05 0.06 0.05 0.02 0.02 0.03 0.04 0.05 0.03 0.02
0.00 0.00 0.00 0.00 0.01 0.00 0.00 0.01 0.01 0.01 0.01 0.01 0.01 0.01 0.01 0.01 0.01 0.01 0.01 0.01 0.02 0.01 0.01 0.01 0.01 0.01 0.01 0.01 0.01 0.01 0.01 0.03 0.05 0.06 0.05 0.03 0.01 0.02 0.03 0.03 0.03 0.02 0.02
0.01 0.01 0.01 0.01 0.01 0.01 0.00 0.01 0.01 0.01 0.01 0.01 0.01 0.01 0.01 0.01 0.01 0.01 0.01 0.01 0.01 0.01 0.01 0.01 0.00 0.00 0.01 0.01 0.01 0.01 0.02 0.04 0.06 0.05 0.05 0.03 0.02 0.02 0.01 0.02 0.02 0.02 0.01
0.03 0.06 0.03 0.02 0.02 0.02 0.01 0.01 0.01 0.01 0.01 0.01 0.01 0.01 0.02 0.03 0.02 0.02 0.02 0.00 0.00 0.00 0.00 0.00 0.00 0.00 0.01 0.00 0.00 0.01 0.02 0.06 0.10 0.05 0.04 0.04 0.03 0.02 0.01 0.02 0.03 0.02 0.01
0.05 0.11 0.07 0.05 0.04 0.03 0.03 0.02 0.04 0.02 0.01 0.03 0.02 0.02 0.08 0.08 0.08 0.05 0.02 0.00 0.00 0.00 0.00 0.00 0.00 0.01 0.02 0.02 0.01 0.01 0.04 0.07 0.07 0.05 0.03 0.01 0.01 0.01 0.02 0.02 0.02 0.02 0.01
0.06 0.07 0.06 0.05 0.07 0.07 0.09 0.06 0.05 0.05 0.04 0.05 0.04 0.05 0.08 0.05 0.05 0.05 0.03 0.01 0.02 0.02 0.03 0.02 0.01 0.01 0.05 0.04 0.02 0.02 0.05 0.09 0.09 0.14 0.05 0.02 0.01 0.01 0.02 0.03 0.03 0.02 0.02
0.08 0.06 0.09 0.07 0.08 0.10 0.10 0.08 0.04 0.03 0.03 0.04 0.05 0.03 0.03 0.05 0.06 0.06 0.06 0.06 0.06 0.07 0.09 0.05 0.03 0.03 0.05 0.02 0.01 0.02 0.03 0.05 0.09 0.13 0.05 0.02 0.01 0.01 0.02 0.02 0.02 0.02 0.02
0.11 0.07 0.10 0.10 0.09 0.10 0.12 0.10 0.04 0.03 0.02 0.04 0.05 0.04 0.02 0.03 0.05 0.06 0.06 0.06 0.05 0.05 0.05 0.05 0.04 0.07 0.09 0.03 0.02 0.02 0.04 0.06 0.10 0.09 0.04 0.01 0.01 0.01 0.01 0.02 0.02 0.02 0.02
0.14 0.11 0.11 0.12 0.10 0.09 0.09 0.09 0.07 0.03 0.03 0.03 0.04 0.03 0.03 0.03 0.05 0.05 0.07 0.05 0.04 0.03 0.05 0.05 0.04 0.04 0.05 0.05 0.03 0.02 0.02 0.03 0.05 0.05 0.03 0.02 0.01 0.01 0.01 0.01 0.02 0.03 0.02
0.10 0.10 0.12 0.11 0.11 0.11 0.11 0.09 0.05 0.03 0.03 0.05 0.04 0.04 0.02 0.03 0.04 0.04 0.06 0.05 0.06 0.04 0.05 0.05 0.05 0.04 0.04 0.04 0.04 0.03 0.03 0.03 0.04 0.03 0.03 0.03 0.03 0.01 0.01 0.01 0.02 0.03 0.02
0.10 0.11 0.13 0.11 0.12 0.12 0.14 0.15 0.11 0.06 0.07 0.06 0.04 0.04 0.03 0.03 0.05 0.05 0.06 0.06 0.05 0.04 0.03 0.05 0.05 0.04 0.05 0.05 0.05 0.04 0.04 0.03 0.04 0.04 0.03 0.03 0.04 0.02 0.01 0.01 0.01 0.02 0.03
0.07 0.10 0.14 0.17 0.14 0.11 0.15 0.16 0.18 0.18 0.16 0.09 0.06 0.05 0.04 0.04 0.04 0.05 0.06 0.09 0.05 0.04 0.02 0.02 0.05 0.05 0.05 0.05 0.04 0.04 0.04 0.03 0.03 0.05 0.05 0.04 0.03 0.03 0.04 0.02 0.01 0.01 0.02
0.05 0.09 0.13 0.16 0.15 0.15 0.18 0.19 0.19 0.21 0.24 0.14 0.10 0.08 0.06 0.04 0.04 0.05 0.06 0.07 0.05 0.05 0.05 0.05 0.07 0.05 0.05 0.05 0.04 0.05 0.05 0.03 0.02 0.04 0.03 0.03 0.03 0.02 0.04 0.04 0.02 0.01 0.01
0.05 0.07 0.10 0.14 0.16 0.14 0.15 0.16 0.15 0.18 0.21 0.16 0.10 0.07 0.07 0.05 0.06 0.06 0.07 0.09 0.08 0.06 0.05 0.06 0.05 0.04 0.04 0.04 0.06 0.07 0.06 0.04 0.02 0.02 0.03 0.02 0.01 0.02 0.04 0.04 0.03 0.03 0.02
0.06 0.06 0.09 0.14 0.16 0.13 0.12 0.14 0.14 0.16 0.15 0.13 0.12 0.13 0.08 0.06 0.06 0.04 0.08 0.07 0.07 0.07 0.07 0.07 0.05 0.06 0.04 0.03 0.04 0.07 0.08 0.09 0.07 0.03 0.03 0.02 0.02 0.03 0.03 0.02 0.02 0.02 0.02
0.07 0.07 0.09 0.14 0.15 0.14 0.16 0.15 0.16 0.20 0.18 0.17 0.16 0.15 0.11 0.09 0.07 0.07 0.07 0.06 0.06 0.04 0.07 0.06 0.03 0.04 0.05 0.04 0.03 0.04 0.06 0.08 0.08 0.05 0.03 0.02 0.02 0.02 0.02 0.01 0.02 0.02 0.02
0.06 0.09 0.12 0.16 0.17 0.18 0.20 0.18 0.13 0.12 0.12 0.12 0.12 0.13 0.13 0.12 0.09 0.09 0.07 0.06 0.05 0.04 0.07 0.04 0.04 0.03 0.05 0.05 0.03 0.02 0.02 0.03 0.05 0.06 0.05 0.03 0.02 0.02 0.01 0.01 0.01 0.02 0.03
0.05 0.08 0.12 0.18 0.17 0.17 0.20 0.19 0.17 0.14 0.14 0.14 0.15 0.17 0.14 0.14 0.12 0.09 0.08 0.06 0.05 0.05 0.06 0.06 0.08 0.05 0.04 0.04 0.04 0.04 0.02 0.02 0.02 0.03 0.04 0.04 0.03 0.02 0.02 0.02 0.02 0.02 0.03
0.05 0.09 0.11 0.16 0.14 0.14 0.16 0.18 0.18 0.17 0.18 0.19 0.19 0.15 0.12 0.10 0.10 0.10 0.10 0.09 0.07 0.06 0.07 0.06 0.06 0.05 0.05 0.04 0.04 0.03 0.02 0.02 0.02 0.02 0.02 0.03 0.03 0.03 0.02 0.01 0.01 0.01 0.01
MSLP
1008.22 1008.35 1008.67 1009.16 1009.75 1010.36 1010.92 1011.37 1011.70 1011.91 1012.05 1012.18 1012.33 1012.54 1012.79 1013.07 1013.35 1013.58 1013.74 1013.85 1013.91 1013.96 1014.01 1014.08 1014.19 1014.32 1014.47 1014.62 1014.76 1014.89 1015.03 1015.17 1015.34 1015.54 1015.75 1015.97 1016.19 1016.39 1016.57 1016.72 1016.85 1016.97 1017.10
1007.92 1008.21 1008.68 1009.30 1009.99 1010.66 1011.22 1011.64 1011.92 1012.08 1012.18 1012.30 1012.47 1012.71 1013.02 1013.34 1013.65 1013.90 1014.07 1014.17 1014.22 1014.25 1014.30 1014.38 1014.50 1014.64 1014.78 1014.92 1015.04 1015.15 1015.26 1015.38 1015.53 1015.73 1015.97 1016.23 1016.49 1016.73 1016.93 1017.10 1017.24 1017.36 1017.47
1007.64 1008.08 1008.71 1009.46 1010.24 1010.95 1011.52 1011.93 1012.17 1012.30 1012.38 1012.50 1012.68 1012.95 1013.27 1013.62 1013.93 1014.17 1014.33 1014.42 1014.46 1014.49 1014.55 1014.64 1014.78 1014.93 1015.08 1015.21 1015.30 1015.38 1015.46 1015.56 1015.71 1015.92 1016.19 1016.48 1016.78 1017.06 1017.29 1017.48 1017.62 1017.74 1017.85
1007.40 1008.01 1008.77 1009.64 1010.49 1011.24 1011.82 1012.21 1012.43 1012.54 1012.62 1012.74 1012.94 1013.22 1013.56 1013.90 1014.20 1014.42 1014.56 1014.62 1014.66 1014.70 1014.78 1014.90 1015.05 1015.22 1015.37 1015.48 1015.55 1015.60 1015.65 1015.74 1015.89 1016.12 1016.42 1016.75 1017.09 1017.40 1017.66 1017.86 1018.00 1018.12 1018.23
1007.26 1008.00 1008.89 1009.83 1010.74 1011.50 1012.08 1012.46 1012.67 1012.78 1012.87 1013.01 1013.23 1013.52 1013.86 1014.19 1014.46 1014.66 1014.77 1014.82 1014.86 1014.92 1015.02 1015.17 1015.34 1015.52 1015.67 1015.76 1015.80 1015.82 1015.85 1015.93 1016.09 1016.34 1016.67 1017.04 1017.41 1017.74 1018.01 1018.22 1018.36 1018.48 1018.59
1007.24 1008.08 1009.04 1010.04 1010.96 1011.73 1012.29 1012.65 1012.86 1012.98 1013.09 1013.26 1013.50 1013.81 1014.15 1014.47 1014.73 1014.90 1014.99 1015.04 1015.09 1015.16 1015.29 1015.46 1015.66 1015.84 1015.97 1016.04 1016.05 1016.03 1016.04 1016.12 1016.29 1016.56 1016.93 1017.33 1017.72 1018.07 1018.35 1018.54 1018.68 1018.79 1018.90
1007.32 1008.22 1009.22 1010.23 1011.15 1011.89 1012.43 1012.78 1012.98 1013.11 1013.25 1013.45 1013.73 1014.07 1014.42 1014.73 1014.98 1015.14 1015.23 1015.28 1015.34 1015.44 1015.59 1015.78 1015.98 1016.15 1016.26 1016.30 1016.27 1016.23 1016.22 1016.30 1016.48 1016.78 1017.18 1017.61 1018.02 1018.38 1018.64 1018.83 1018.95 1019.04 1019.15
1007.47 1008.39 1009.40 1010.39 1011.27 1011.98 1012.49 1012.81 1013.01 1013.17 1013.34 1013.58 1013.90 1014.26 1014.63 1014.96 1015.20 1015.37 1015.46 1015.52 1015.60 1015.72 1015.89 1016.09 1016.29 1016.44 1016.51 1016.51 1016.45 1016.38 1016.36 1016.44 1016.65 1016.98 1017.40 1017.85 1018.28 1018.64 1018.90 1019.06 1019.16 1019.24 1019.34
1007.64 1008.55 1009.53 1010.49 1011.33 1011.99 1012.46 1012.77 1012.97 1013.15 1013.36 1013.64 1014.00 1014.39 1014.78 1015.12 1015.38 1015.55 1015.66 1015.74 1015.84 1015.97 1016.15 1016.34 1016.53 1016.65 1016.69 1016.65 1016.57 1016.48 1016.46 1016.55 1016.77 1017.13 1017.58 1018.06 1018.50 1018.86 1019.11 1019.26 1019.34 1019.40 1019.48
1007.76 1008.65 1009.59 1010.50 1011.29 1011.92 1012.36 1012.66 1012.88 1013.08 1013.33 1013.65 1014.04 1014.46 1014.87 1015.22 1015.49 1015.68 1015.80 1015.90 1016.01 1016.15 1016.33 1016.52 1016.68 1016.77 1016.78 1016.72 1016.62 1016.53 1016.51 1016.62 1016.87 1017.25 1017.73 1018.22 1018.68 1019.04 1019.29 1019.43 1019.50 1019.54 1019.60
1007.81 1008.66 1009.57 1010.43 1011.18 1011.77 1012.20 1012.50 1012.73 1012.96 1013.25 1013.60 1014.02 1014.46 1014.89 1015.25 1015.53 1015.73 1015.87 1015.98 1016.10 1016.25 1016.42 1016.59 1016.73 1016.81 1016.80 1016.73 1016.63 1016.55 1016.55 1016.68 1016.95 1017.35 1017.84 1018.35 1018.82 1019.19 1019.45 1019.59 1019.65 1019.69 1019.73
1007.76 1008.58 1009.45 1010.28 1011.00 1011.57 1012.00 1012.31 1012.56 1012.82 1013.13 1013.51 1013.94 1014.40 1014.83 1015.21 1015.50 1015.71 1015.86 1015.98 1016.11 1016.26 1016.42 1016.58 1016.71 1016.78 1016.77 1016.71 1016.62 1016.57 1016.60 1016.74 1017.03 1017.45 1017.94 1018.46 1018.92 1019.30 1019.57 1019.73 1019.81 1019.84 1019.89
1007.62 1008.42 1009.26 1010.06 1010.76 1011.33 1011.76 1012.09 1012.37 1012.66 1012.99 1013.38 1013.82 1014.28 1014.72 1015.10 1015.39 1015.62 1015.78 1015.92 1016.05 1016.20 1016.36 1016.52 1016.65 1016.72 1016.73 1016.70 1016.64 1016.62 1016.68 1016.85 1017.14 1017.55 1018.02 1018.52 1018.98 1019.37 1019.65 1019.83 1019.93 1020.00 1020.05
1007.42 1008.20 1009.02 1009.80 1010.49 1011.05 1011.49 1011.85 1012.15 1012.47 1012.82 1013.22 1013.66 1014.11 1014.55 1014.93 1015.24 1015.48 1015.66 1015.82 1015.97 1016.12 1016.29 1016.45 1016.58 1016.68 1016.72 1016.72 1016.72 1016.74 1016.82 1017.00 1017.28 1017.65 1018.09 1018.54 1018.98 1019.35 1019.65 1019.86 1020.00 1020.10 1020.19
1007.19 1007.96 1008.76 1009.52 1010.19 1010.76 1011.22 1011.59 1011.93 1012.26 1012.62 1013.02 1013.45 1013.90 1014.33 1014.71 1015.04 1015.31 1015.53 1015.71 1015.89 1016.06 1016.24 1016.41 1016.56 1016.68 1016.76 1016.81 1016.86 1016.91 1017.02 1017.19 1017.43 1017.75 1018.12 1018.51 1018.90 1019.24 1019.54 1019.78 1019.97 1020.12 1020.25
1006.98 1007.73 1008.50 1009.24 1009.91 1010.47 1010.95 1011.35 1011.70 1012.04 1012.40 1012.80 1013.22 1013.65 1014.08 1014.48 1014.83 1015.14 1015.40 1015.63 1015.84 1016.04 1016.23 1016.42 1016.60 1016.74 1016.87 1016.97 1017.05 1017.14 1017.25 1017.40 1017.59 1017.84 1018.11 1018.42 1018.73 1019.03 1019.31 1019.57 1019.80 1020.00 1020.18
1006.82 1007.55 1008.29 1009.00 1009.65 1010.22 1010.71 1011.13 1011.50 1011.85 1012.21 1012.58 1012.98 1013.40 1013.83 1014.24 1014.63 1014.98 1015.30 1015.58 1015.83 1016.07 1016.29 1016.50 1016.69 1016.87 1017.02 1017.15 1017.27 1017.38 1017.50 1017.62 1017.75 1017.90 1018.08 1018.27 1018.49 1018.73 1018.98 1019.24 1019.50 1019.75 1019.98
1006.72 1007.42 1008.12 1008.81 1009.45 1010.02 1010.52 1010.96 1011.35 1011.70 1012.05 1012.40 1012.78 1013.18 1013.59 1014.02 1014.43 1014.84 1015.21 1015.56 1015.87 1016.14 1016.39 1016.62 1016.83 1017.02 1017.19 1017.35 1017.50 1017.62 1017.73 1017.82 1017.89 1017.96 1018.03 1018.11 1018.23 1018.38 1018.58 1018.82 1019.10 1019.38 1019.65
1006.69 1007.34 1008.01 1008.67 1009.30 1009.88 1010.41 1010.87 1011.28 1011.64 1011.97 1012.29 1012.63 1012.99 1013.39 1013.82 1014.26 1014.71 1015.15 1015.55 1015.92 1016.23 1016.51 1016.75 1016.97 1017.17 1017.36 1017.54 1017.70 1017.83 1017.94 1018.00 1018.02 1018.02 1017.99 1017.98 1017.99 1018.06 1018.20 1018.40 1018.66 1018.96 1019.26
1006.68 1007.30 1007.93 1008.57 1009.20 1009.81 1010.36 1010.86 1011.29 1011.66 1011.97 1012.26 1012.56 1012.88 1013.24 1013.66 1014.11 1014.59 1015.08 1015.54 1015.95 1016.31 1016.62 1016.87 1017.09 1017.29 1017.49 1017.67 1017.85 1018.00 1018.10 1018.16 1018.16 1018.10 1018.01 1017.91 1017.84 1017.82 1017.89 1018.04 1018.26 1018.55 1018.86
1006.66 1007.24 1007.85 1008.48 1009.12 1009.76 1010.36 1010.90 1011.36 1011.74 1012.05 1012.31 1012.55 1012.82 1013.14 1013.52 1013.97 1014.46 1014.98 1015.48 1015.94 1016.34 1016.67 1016.94 1017.17 1017.37 1017.57 1017.76 1017.94 1018.10 1018.23 1018.30 1018.29 1018.21 1018.09 1017.94 1017.80 1017.71 1017.70 1017.79 1017.97 1018.22 1018.51
1006.58 1007.14 1007.73 1008.35 1009.02 1009.69 1010.34 1010.94 1011.44 1011.85 1012.15 1012.38 1012.58 1012.79 1013.05 1013.39 1013.82 1014.31 1014.84 1015.38 1015.87 1016.31 1016.67 1016.96 1017.19 1017.39 1017.58 1017.78 1017.98 1018.16 1018.31 1018.40 1018.41 1018.35 1018.22 1018.05 1017.87 1017.73 1017.66 1017.68 1017.80 1018.01 1018.26
1006.41 1006.95 1007.52 1008.14 1008.83 1009.54 1010.25 1010.90 1011.46 1011.89 1012.21 1012.42 1012.58 1012.74 1012.95 1013.24 1013.63 1014.10 1014.64 1015.20 1015.73 1016.19 1016.58 1016.89 1017.14 1017.35 1017.54 1017.74 1017.95 1018.15 1018.32 1018.45 1018.50 1018.48 1018.37 1018.21 1018.03 1017.86 1017.74 1017.71 1017.76 1017.91 1018.12
1006.14 1006.65 1007.20 1007.82 1008.51 1009.25 1010.00 1010.71 1011.32 1011.80 1012.14 1012.36 1012.51 1012.63 1012.79 1013.04 1013.39 1013.85 1014.38 1014.95 1015.50 1016.00 1016.43 1016.76 1017.03 1017.25 1017.45 1017.65 1017.86 1018.07 1018.27 1018.43 1018.53 1018.55 1018.49 1018.36 1018.20 1018.03 1017.89 1017.81 1017.81 1017.89 1018.05
1005.78 1006.26 1006.78 1007.38 1008.06 1008.80 1009.58 1010.33 1010.99 1011.52 1011.91 1012.15 1012.31 1012.42 1012.56 1012.78 1013.10 1013.53 1014.06 1014.64 1015.21 1015.75 1016.21 1016.58 1016.87 1017.10 1017.30 1017.50 1017.70 1017.92 1018.13 1018.31 1018.45 1018.52 1018.52 1018.44 1018.31 1018.16 1018.02 1017.92 1017.87 1017.91 1018.01
1005.40 1005.84 1006.31 1006.85 1007.49 1008.22 1008.99 1009.76 1010.46 1011.05 1011.49 1011.78 1011.97 1012.11 1012.25 1012.46 1012.77 1013.19 1013.71 1014.29 1014.89 1015.45 1015.94 1016.35 1016.67 1016.92 1017.12 1017.31 1017.50 1017.70 1017.91 1018.10 1018.27 1018.38 1018.43 1018.41 1018.33 1018.22 1018.09 1017.98 1017.91 1017.90 1017.96
Thickness
5816 5810 5803 5799 5796 5793 5790 5787 5785 5782 5780 5777 5776 5774 5772 5771 5770 5769 5767 5766 5764 5763 5762 5761 5759 5758 5757 5756 5755 5754 5753 5752 5751 5750 5748 5746 5745 5744 5743 5742 5741 5739 5737
5820 5810 5803 5799 5796 5792 5789 5787 5784 5781 5779 5776 5774 5772 5771 5769 5769 5767 5766 5765 5763 5762 5761 5759 5758 5757 5756 5754 5753 5752 5751 5750 5749 5748 5746 5744 5743 5741 5741 5741 5740 5737 5735
5819 5809 5802 5798 5795 5791 5789 5786 5783 5780 5778 5775 5773 5771 5770 5768 5767 5766 5765 5763 5762 5761 5759 5758 5756 5755 5754 5753 5752 5751 5750 5749 5747 5746 5745 5743 5740 5739 5739 5738 5737 5735 5734
5817 5809 5803 5797 5794 5790 5787 5785 5782 5779 5777 5774 5772 5770 5769 5767 5766 5764 5763 5762 5760 5759 5758 5756 5755 5754 5752 5752 5751 5750 5749 5748 5746 5745 5744 5742 5739 5737 5737 5736 5734 5733 5732
5816 5808 5800 5796 5792 5789 5786 5783 5781 5778 5775 5773 5771 5769 5767 5766 5764 5763 5761 5760 5759 5758 5756 5755 5754 5752 5751 5750 5749 5749 5748 5747 5746 5744 5742 5739 5737 5735 5734 5734 5733 5731 5730
5812 5805 5797 5794 5790 5787 5784 5782 5779 5776 5774 5772 5770 5768 5766 5764 5763 5762 5760 5759 5758 5756 5755 5753 5752 5750 5749 5749 5748 5748 5747 5747 5746 5744 5741 5738 5735 5733 5733 5732 5731 5730 5729
5811 5803 5795 5791 5788 5785 5782 5780 5777 5775 5773 5771 5768 5766 5764 5763 5761 5760 5759 5757 5756 5755 5753 5752 5750 5749 5748 5748 5748 5747 5747 5746 5747 5744 5740 5737 5734 5732 5731 5730 5730 5729 5728
5811 5801 5792 5788 5785 5783 5780 5778 5776 5773 5771 5769 5767 5765 5763 5761 5760 5759 5757 5756 5754 5753 5752 5750 5749 5748 5747 5747 5747 5748 5747 5746 5747 5744 5740 5736 5733 5731 5730 5729 5728 5727 5726
5811 5800 5791 5786 5783 5780 5778 5776 5774 5772 5770 5768 5766 5764 5762 5760 5758 5757 5756 5754 5753 5751 5750 5749 5748 5747 5746 5746 5747 5747 5747 5747 5746 5743 5739 5734 5732 5730 5729 5727 5727 5726 5725
5808 5799 5792 5787 5782 5778 5775 5773 5771 5770 5768 5766 5765 5763 5761 5759 5758 5756 5754 5753 5751 5750 5749 5748 5747 5746 5746 5746 5747 5747 5747 5746 5745 5742 5737 5733 5731 5729 5728 5726 5725 5724 5723
5803 5797 5793 5788 5783 5780 5776 5772 5769 5768 5766 5765 5763 5762 5761 5759 5758 5755 5754 5752 5750 5749 5748 5747 5746 5746 5745 5745 5746 5746 5746 5746 5744 5740 5736 5733 5731 5729 5727 5725 5724 5723 5722
5797 5795 5794 5789 5784 5781 5778 5771 5769 5768 5765 5765 5764 5762 5761 5761 5759 5757 5753 5751 5750 5749 5748 5747 5746 5745 5745 5746 5746 5746 5746 5746 5744 5739 5734 5732 5730 5728 5726 5725 5724 5722 5721
5797 5795 5793 5789 5784 5782 5778 5772 5771 5770 5766 5766 5765 5763 5762 5761 5759 5756 5753 5750 5750 5749 5749 5748 5747 5747 5747 5748 5748 5748 5747 5745 5742 5737 5733 5731 5729 5728 5726 5724 5723 5721 5720
5795 5794 5792 5788 5783 5781 5778 5775 5773 5771 5768 5768 5765 5765 5763 5762 5761 5758 5755 5753 5752 5751 5751 5751 5751 5750 5749 5750 5749 5748 5747 5745 5740 5736 5732 5730 5729 5727 5725 5723 5722 5720 5719
5791 5790 5788 5786 5782 5779 5776 5774 5774 5773 5770 5769 5766 5765 5764 5763 5761 5759 5758 5756 5755 5754 5753 5752 5751 5750 5749 5749 5749 5747 5746 5743 5739 5736 5733 5730 5729 5727 5725 5724 5722 5720 5719
5788 5787 5786 5782 5779 5776 5773 5771 5772 5772 5771 5769 5767 5765 5764 5763 5761 5759 5757 5757 5756 5755 5754 5752 5751 5750 5749 5748 5747 5746 5745 5743 5740 5737 5733 5730 5729 5727 5726 5724 5722 5721 5719
5788 5786 5782 5779 5776 5772 5770 5769 5769 5770 5769 5768 5766 5764 5763 5762 5759 5758 5757 5756 5756 5755 5754 5753 5751 5750 5748 5747 5746 5746 5745 5743 5740 5738 5735 5732 5729 5727 5726 5725 5723 5722 5720
5787 5782 5779 5777 5773 5769 5767 5766 5766 5767 5767 5766 5765 5763 5762 5761 5759 5757 5756 5755 5755 5755 5754 5752 5751 5749 5747 5746 5745 5745 5744 5742 5740 5739 5737 5734 5731 5729 5726 5725 5724 5723 5722
5786 5781 5776 5773 5770 5768 5765 5763 5763 5763 5762 5763 5764 5762 5760 5759 5758 5757 5756 5755 5755 5754 5753 5753 5750 5748 5745 5744 5744 5744 5744 5743 5741 5740 5738 5736 5734 5732 5729 5727 5725 5724 5723
5784 5779 5774 5770 5767 5765 5762 5760 5759 5759 5757 5759 5761 5761 5760 5758 5757 5756 5755 5754 5754 5753 5752 5751 5748 5747 5746 5744 5745 5744 5744 5744 5743 5742 5740 5739 5737 5735 5732 5730 5727 5725 5724
5780 5775 5772 5767 5764 5761 5758 5755 5753 5751 5753 5755 5758 5759 5758 5757 5756 5755 5755 5753 5753 5752 5751 5749 5747 5745 5744 5745 5741 5739 5742 5745 5744 5743 5742 5741 5739 5737 5735 5732 5729 5728 5726
5776 5772 5768 5764 5761 5759 5757 5755 5754 5752 5753 5755 5756 5756 5757 5756 5755 5755 5754 5752 5752 5750 5749 5748 5746 5743 5743 5745 5740 5734 5731 5734 5740 5745 5742 5741 5740 5739 5737 5734 5732 5731 5729
5773 5769 5767 5763 5760 5758 5756 5753 5752 5749 5749 5750 5751 5752 5754 5753 5753 5753 5753 5752 5751 5750 5748 5747 5746 5743 5740 5744 5745 5738 5730 5726 5732 5739 5742 5743 5742 5740 5739 5738 5735 5734 5732
5772 5769 5765 5761 5759 5756 5754 5751 5749 5745 5745 5748 5750 5750 5751 5752 5752 5751 5751 5751 5750 5750 5748 5747 5747 5746 5743 5740 5743 5744 5741 5738 5731 5728 5736 5741 5742 5741 5740 5740 5738 5736 5734
5773 5768 5763 5759 5756 5754 5752 5751 5749 5747 5748 5749 5750 5749 5749 5750 5751 5751 5750 5750 5749 5749 5749 5748 5747 5746 5744 5742 5741 5741 5741 5740 5739 5731 5727 5733 5737 5741 5741 5741 5740 5738 5736
5773 5768 5763 5757 5754 5753 5751 5750 5748 5748 5748 5747 5746 5745 5746 5747 5748 5749 5749 5749 5748 5748 5748 5747 5746 5745 5744 5743 5742 5742 5740 5737 5736 5735 5731 5731 5732 5738 5742 5742 5741 5740 5738